Location: Newark
(33.4453°N, 112.0669°W)
Time: 02:24:00
(UTC+00:00)

Explorer 7 - Pass Details

Date: 24 February 2020
Orbit: 485 x 679 km, 50.3° (Epoch: 31 March)

Event Time Altitude Azimuth Distance (km) Brightness Sun altitude
Rises 02:20:32 0° 301° (WNW) 2,681 11.3 -13.4°
Reaches altitude 10° 02:23:00 10° 290° (WNW) 1,755 10.5 -13.9°
Maximum altitude 02:26:25 28° 230° (SW) 968 8.6 -14.6°
Drops below altitude 10° 02:29:42 10° 170° (S) 1,680 9.2 -15.3°
Enters shadow 02:31:47 - 159° (SSE) 2,443 9.9 -15.7°
